Wetterdaten: Freitag, 27.11.2015
Datum Zeit Auen-Temp. Temp gefhlt Luftfeuchte Luftdruck Regen Wind Richtung Richtung Taupunkt Windben
27.11.2015 00:00 -2,0 C -2,4 C 90 % 1020,0 hPa 0,0 mm 0,0 km/h (0 Bft) S 180 -3,4 C 0,0 km/h (0 Bft)
27.11.2015 00:05 -2,0 C -2,4 C 91 % 1020,0 hPa 0,0 mm 0,0 km/h (0 Bft) S 180 -3,3 C 0,0 km/h (0 Bft)
27.11.2015 00:10 -2,0 C -2,3 C 87 % 1020,0 hPa 0,0 mm 0,0 km/h (0 Bft) S-SW 202 -3,9 C 0,0 km/h (0 Bft)
27.11.2015 00:15 -2,4 C -2,7 C 91 % 1019,8 hPa 0,0 mm 0,0 km/h (0 Bft) S-SW 202 -3,7 C 0,0 km/h (0 Bft)
27.11.2015 00:20 -2,2 C -2,6 C 88 % 1019,8 hPa 0,0 mm 0,0 km/h (0 Bft) S 180 -3,9 C 0,0 km/h (0 Bft)
27.11.2015 00:25 -2,4 C -2,8 C 91 % 1019,8 hPa 0,0 mm 0,0 km/h (0 Bft) S 180 -3,7 C 0,0 km/h (0 Bft)
27.11.2015 00:30 -2,5 C -2,9 C 88 % 1019,8 hPa 0,0 mm 0,0 km/h (0 Bft) S 180 -4,2 C 0,0 km/h (0 Bft)
27.11.2015 00:35 -2,3 C -2,9 C 91 % 1020,1 hPa 0,0 mm 0,0 km/h (0 Bft) S-SO 157 -3,6 C 0,0 km/h (0 Bft)
27.11.2015 00:40 -2,6 C -3,0 C 91 % 1020,1 hPa 0,0 mm 0,0 km/h (0 Bft) SW 225 -3,9 C 0,0 km/h (0 Bft)
27.11.2015 00:45 -2,9 C -3,2 C 87 % 1020,1 hPa 0,0 mm 0,0 km/h (0 Bft) S-SW 202 -4,8 C 0,0 km/h (0 Bft)
27.11.2015 00:50 -3,7 C -3,9 C 87 % 1020,1 hPa 0,0 mm 0,0 km/h (0 Bft) S-SW 202 -5,5 C 0,0 km/h (0 Bft)
27.11.2015 00:55 -3,6 C -3,9 C 90 % 1020,0 hPa 0,0 mm 0,0 km/h (0 Bft) S-SW 202 -5,0 C 0,0 km/h (0 Bft)
27.11.2015 01:00 -3,4 C -3,8 C 87 % 1020,0 hPa 0,0 mm 0,0 km/h (0 Bft) S-SW 202 -5,2 C 0,0 km/h (0 Bft)
27.11.2015 01:05 -3,7 C -3,9 C 87 % 1020,0 hPa 0,0 mm 0,0 km/h (0 Bft) S-SW 202 -5,5 C 0,0 km/h (0 Bft)
27.11.2015 01:10 -3,5 C -3,6 C 87 % 1020,0 hPa 0,0 mm 0,0 km/h (0 Bft) S-SW 202 -5,3 C 0,0 km/h (0 Bft)
27.11.2015 01:15 -3,3 C -3,5 C 87 % 1020,2 hPa 0,0 mm 0,0 km/h (0 Bft) S-SW 202 -5,1 C 0,0 km/h (0 Bft)
27.11.2015 01:20 -3,0 C -3,2 C 91 % 1020,2 hPa 0,0 mm 0,0 km/h (0 Bft) S-SW 202 -4,3 C 0,0 km/h (0 Bft)
27.11.2015 01:25 -2,9 C -3,1 C 91 % 1020,2 hPa 0,0 mm 0,0 km/h (0 Bft) SW 225 -4,2 C 0,0 km/h (0 Bft)
27.11.2015 01:30 -2,8 C -2,9 C 88 % 1020,2 hPa 0,0 mm 0,0 km/h (0 Bft) S 180 -4,5 C 0,0 km/h (0 Bft)
27.11.2015 01:35 -2,8 C -2,9 C 88 % 1020,0 hPa 0,0 mm 0,0 km/h (0 Bft) N-NO 22 -4,5 C 0,0 km/h (0 Bft)
27.11.2015 01:40 -2,8 C -2,9 C 88 % 1020,0 hPa 0,0 mm 0,0 km/h (0 Bft) N-NO 22 -4,5 C 0,0 km/h (0 Bft)
27.11.2015 01:45 -2,8 C -2,8 C 88 % 1020,0 hPa 0,0 mm 0,0 km/h (0 Bft) N-NO 22 -4,5 C 0,0 km/h (0 Bft)
27.11.2015 01:50 -2,6 C -2,7 C 91 % 1020,0 hPa 0,0 mm 0,0 km/h (0 Bft) NW 315 -3,9 C 0,0 km/h (0 Bft)
27.11.2015 01:55 -2,5 C -2,7 C 91 % 1020,1 hPa 0,0 mm 0,0 km/h (0 Bft) NW 315 -3,8 C 0,0 km/h (0 Bft)
27.11.2015 02:00 -2,4 C -2,5 C 91 % 1020,1 hPa 0,0 mm 0,0 km/h (0 Bft) NW 315 -3,7 C 0,0 km/h (0 Bft)
27.11.2015 02:05 -2,4 C -2,5 C 91 % 1020,1 hPa 0,0 mm 0,0 km/h (0 Bft) W 270 -3,7 C 0,0 km/h (0 Bft)
27.11.2015 02:10 -2,4 C -2,5 C 88 % 1020,1 hPa 0,0 mm 0,0 km/h (0 Bft) NW 315 -4,1 C 0,0 km/h (0 Bft)
27.11.2015 02:15 -2,4 C -2,5 C 88 % 1020,1 hPa 0,0 mm 0,0 km/h (0 Bft) NW 315 -4,1 C 0,0 km/h (0 Bft)
27.11.2015 02:20 -2,4 C -2,5 C 88 % 1020,1 hPa 0,0 mm 0,0 km/h (0 Bft) NW 315 -4,1 C 0,0 km/h (0 Bft)
27.11.2015 02:25 -2,4 C -2,5 C 88 % 1020,1 hPa 0,0 mm 0,0 km/h (0 Bft) NW 315 -4,1 C 0,0 km/h (0 Bft)
27.11.2015 02:30 -2,3 C -2,3 C 88 % 1020,1 hPa 0,0 mm 0,0 km/h (0 Bft) W 270 -4,0 C 0,0 km/h (0 Bft)
27.11.2015 02:35 -2,2 C -2,3 C 88 % 1020,0 hPa 0,0 mm 0,0 km/h (0 Bft) W 270 -3,9 C 0,0 km/h (0 Bft)
27.11.2015 02:40 -2,2 C -2,3 C 88 % 1020,0 hPa 0,0 mm 0,0 km/h (0 Bft) W 270 -3,9 C 0,0 km/h (0 Bft)
27.11.2015 02:45 -2,2 C -2,3 C 88 % 1020,0 hPa 0,0 mm 0,0 km/h (0 Bft) W 270 -3,9 C 0,0 km/h (0 Bft)
27.11.2015 02:50 -2,2 C -2,3 C 92 % 1020,0 hPa 0,0 mm 0,0 km/h (0 Bft) W 270 -3,3 C 0,0 km/h (0 Bft)
27.11.2015 02:55 -2,2 C -2,3 C 91 % 1019,8 hPa 0,0 mm 0,0 km/h (0 Bft) W 270 -3,5 C 0,0 km/h (0 Bft)
27.11.2015 03:00 -2,1 C -2,3 C 92 % 1019,8 hPa 0,0 mm 0,0 km/h (0 Bft) W 270 -3,2 C 0,0 km/h (0 Bft)
27.11.2015 03:05 -2,0 C -2,2 C 92 % 1019,8 hPa 0,0 mm 0,0 km/h (0 Bft) W-SW 247 -3,1 C 0,0 km/h (0 Bft)
27.11.2015 03:10 -1,9 C -2,1 C 92 % 1019,8 hPa 0,0 mm 0,0 km/h (0 Bft) NO 45 -3,0 C 0,0 km/h (0 Bft)
27.11.2015 03:15 -1,9 C -2,1 C 92 % 1019,8 hPa 0,0 mm 0,0 km/h (0 Bft) NO 45 -3,0 C 0,0 km/h (0 Bft)
27.11.2015 03:20 -1,9 C -2,0 C 92 % 1019,8 hPa 0,0 mm 0,0 km/h (0 Bft) NO 45 -3,0 C 0,0 km/h (0 Bft)
27.11.2015 03:25 -1,9 C -2,0 C 88 % 1019,8 hPa 0,0 mm 0,0 km/h (0 Bft) NO 45 -3,6 C 0,0 km/h (0 Bft)
27.11.2015 03:30 -1,8 C -1,9 C 92 % 1019,8 hPa 0,0 mm 0,0 km/h (0 Bft) NO 45 -2,9 C 0,0 km/h (0 Bft)
27.11.2015 03:35 -1,8 C -2,0 C 92 % 1019,7 hPa 0,0 mm 0,0 km/h (0 Bft) NO 45 -2,9 C 0,0 km/h (0 Bft)
27.11.2015 03:40 -2,0 C -2,2 C 92 % 1019,7 hPa 0,0 mm 0,0 km/h (0 Bft) NO 45 -3,1 C 0,0 km/h (0 Bft)
27.11.2015 03:45 -2,0 C -2,2 C 92 % 1019,7 hPa 0,0 mm 0,0 km/h (0 Bft) NO 45 -3,1 C 0,0 km/h (0 Bft)
27.11.2015 03:50 -2,2 C -2,4 C 91 % 1019,7 hPa 0,0 mm 0,0 km/h (0 Bft) NO 45 -3,5 C 0,0 km/h (0 Bft)
27.11.2015 03:55 -2,1 C -2,3 C 91 % 1019,7 hPa 0,0 mm 0,0 km/h (0 Bft) NO 45 -3,4 C 0,0 km/h (0 Bft)
27.11.2015 04:00 -2,0 C -2,3 C 91 % 1019,7 hPa 0,0 mm 0,0 km/h (0 Bft) NO 45 -3,3 C 0,0 km/h (0 Bft)
27.11.2015 04:05 -2,1 C -2,4 C 91 % 1019,7 hPa 0,0 mm 0,0 km/h (0 Bft) NO 45 -3,4 C 0,0 km/h (0 Bft)
27.11.2015 04:10 -2,2 C -2,5 C 92 % 1019,7 hPa 0,0 mm 0,0 km/h (0 Bft) O-SO 112 -3,3 C 0,0 km/h (0 Bft)
27.11.2015 04:15 -2,2 C -2,3 C 88 % 1019,3 hPa 0,0 mm 0,0 km/h (0 Bft) O-SO 112 -3,9 C 0,0 km/h (0 Bft)
27.11.2015 04:20 -2,0 C -2,3 C 92 % 1019,3 hPa 0,0 mm 0,5 km/h (0 Bft) O-NO 67 -3,1 C 4,7 km/h (1 Bft)
27.11.2015 04:25 -2,0 C -2,3 C 92 % 1019,3 hPa 0,0 mm 0,5 km/h (0 Bft) NO 45 -3,1 C 0,0 km/h (0 Bft)
27.11.2015 04:30 -2,0 C -2,2 C 92 % 1019,3 hPa 0,0 mm 0,8 km/h (0 Bft) NO 45 -3,1 C 4,7 km/h (1 Bft)
27.11.2015 04:35 -2,0 C -2,2 C 92 % 1019,2 hPa 0,0 mm 1,0 km/h (0 Bft) O-NO 67 -3,1 C 0,0 km/h (0 Bft)
27.11.2015 04:40 -2,0 C -2,2 C 92 % 1019,2 hPa 0,0 mm 0,8 km/h (0 Bft) O-NO 67 -3,1 C 0,0 km/h (0 Bft)
27.11.2015 04:45 -2,0 C -2,2 C 92 % 1019,2 hPa 0,0 mm 0,3 km/h (0 Bft) O-NO 67 -3,1 C 2,8 km/h (1 Bft)
27.11.2015 04:50 -1,9 C -2,1 C 92 % 1019,2 hPa 0,0 mm 1,0 km/h (0 Bft) O-NO 67 -3,0 C 5,4 km/h (1 Bft)
27.11.2015 04:55 -2,0 C -2,2 C 92 % 1019,2 hPa 0,0 mm 1,0 km/h (0 Bft) O-NO 67 -3,1 C 0,0 km/h (0 Bft)
27.11.2015 05:00 -2,0 C -2,2 C 92 % 1019,2 hPa 0,0 mm 0,0 km/h (0 Bft) O-NO 67 -3,1 C 0,0 km/h (0 Bft)
27.11.2015 05:05 -2,0 C -2,2 C 92 % 1019,2 hPa 0,0 mm 0,0 km/h (0 Bft) O-SO 112 -3,1 C 0,0 km/h (0 Bft)
27.11.2015 05:10 -2,1 C -2,3 C 92 % 1019,2 hPa 0,0 mm 0,3 km/h (0 Bft) NW 315 -3,2 C 0,0 km/h (0 Bft)
27.11.2015 05:15 -2,1 C -2,3 C 92 % 1019,1 hPa 0,0 mm 0,8 km/h (0 Bft) O-NO 67 -3,2 C 2,8 km/h (1 Bft)
27.11.2015 05:20 -2,1 C -2,3 C 92 % 1019,1 hPa 0,0 mm 1,8 km/h (1 Bft) SO 135 -3,2 C 9,6 km/h (2 Bft)
27.11.2015 05:25 -2,2 C -2,3 C 88 % 1019,1 hPa 0,0 mm 1,3 km/h (1 Bft) O 90 -3,9 C 0,0 km/h (0 Bft)
27.11.2015 05:27 -2,2 C -2,4 C 92 % 1019,1 hPa 0,0 mm 0,5 km/h (0 Bft) O-SO 112 -3,3 C 0,0 km/h (0 Bft)
27.11.2015 05:29 -2,2 C -2,4 C 92 % 1019,1 hPa 0,0 mm 0,5 km/h (0 Bft) O-SO 112 -3,3 C 0,0 km/h (0 Bft)
27.11.2015 05:30 -2,2 C -2,4 C 92 % 1019,1 hPa 0,0 mm 0,5 km/h (0 Bft) O-SO 112 -3,3 C 0,0 km/h (0 Bft)
27.11.2015 05:35 -2,2 C -2,4 C 92 % 1019,2 hPa 0,0 mm 0,3 km/h (0 Bft) W-SW 247 -3,3 C 3,4 km/h (1 Bft)
27.11.2015 05:40 -2,2 C -2,4 C 92 % 1019,2 hPa 0,0 mm 0,3 km/h (0 Bft) NO 45 -3,3 C 0,0 km/h (0 Bft)
27.11.2015 05:45 -2,2 C -2,4 C 92 % 1019,2 hPa 0,0 mm 0,0 km/h (0 Bft) O 90 -3,3 C 0,0 km/h (0 Bft)
27.11.2015 05:50 -2,2 C -2,4 C 92 % 1019,2 hPa 0,0 mm 0,0 km/h (0 Bft) NO 45 -3,3 C 0,0 km/h (0 Bft)
27.11.2015 05:55 -2,2 C -2,4 C 92 % 1019,1 hPa 0,0 mm 0,0 km/h (0 Bft) O-NO 67 -3,3 C 0,0 km/h (0 Bft)
27.11.2015 06:00 -2,2 C -2,4 C 92 % 1019,1 hPa 0,0 mm 0,3 km/h (0 Bft) SO 135 -3,3 C 4,7 km/h (1 Bft)
27.11.2015 06:05 -2,3 C -2,4 C 88 % 1019,1 hPa 0,0 mm 1,0 km/h (0 Bft) O-NO 67 -4,0 C 3,6 km/h (1 Bft)
27.11.2015 06:10 -2,3 C -2,5 C 92 % 1019,1 hPa 0,0 mm 1,6 km/h (1 Bft) O-NO 67 -3,4 C 2,6 km/h (1 Bft)
27.11.2015 06:15 -2,3 C -2,5 C 92 % 1019,2 hPa 0,0 mm 1,3 km/h (1 Bft) O-NO 67 -3,4 C 0,0 km/h (0 Bft)
27.11.2015 06:20 -2,4 C -2,6 C 92 % 1019,2 hPa 0,0 mm 0,8 km/h (0 Bft) NO 45 -3,5 C 0,0 km/h (0 Bft)
27.11.2015 06:25 -2,5 C -2,7 C 92 % 1019,2 hPa 0,0 mm 0,5 km/h (0 Bft) O-SO 112 -3,6 C 0,0 km/h (0 Bft)
27.11.2015 06:30 -2,6 C -2,8 C 92 % 1019,2 hPa 0,0 mm 0,0 km/h (0 Bft) S 180 -3,7 C 0,0 km/h (0 Bft)
27.11.2015 06:35 -2,6 C -2,8 C 92 % 1019,1 hPa 0,0 mm 0,0 km/h (0 Bft) N-NO 22 -3,7 C 0,0 km/h (0 Bft)
27.11.2015 06:40 -2,6 C -2,8 C 92 % 1019,1 hPa 0,0 mm 0,0 km/h (0 Bft) N-NO 22 -3,7 C 0,0 km/h (0 Bft)
27.11.2015 06:45 -2,7 C -2,9 C 92 % 1019,1 hPa 0,0 mm 0,5 km/h (0 Bft) O-NO 67 -3,8 C 2,8 km/h (1 Bft)
27.11.2015 06:50 -2,8 C -3,0 C 92 % 1019,1 hPa 0,0 mm 0,8 km/h (0 Bft) O-NO 67 -3,9 C 0,0 km/h (0 Bft)
27.11.2015 06:55 -2,9 C -3,1 C 92 % 1019,2 hPa 0,0 mm 1,6 km/h (1 Bft) NO 45 -4,0 C 3,6 km/h (1 Bft)
27.11.2015 07:00 -3,1 C -3,3 C 92 % 1019,2 hPa 0,0 mm 2,1 km/h (1 Bft) NO 45 -4,2 C 0,0 km/h (0 Bft)
27.11.2015 07:05 -3,3 C -3,5 C 91 % 1019,2 hPa 0,0 mm 1,3 km/h (1 Bft) N-NO 22 -4,6 C 0,0 km/h (0 Bft)
27.11.2015 07:10 -3,7 C -3,9 C 91 % 1019,2 hPa 0,0 mm 0,0 km/h (0 Bft) NO 45 -4,9 C 0,0 km/h (0 Bft)
27.11.2015 07:15 -3,5 C -3,8 C 91 % 1019,0 hPa 0,0 mm 0,0 km/h (0 Bft) NO 45 -4,8 C 0,0 km/h (0 Bft)
27.11.2015 07:20 -3,5 C -3,8 C 91 % 1019,0 hPa 0,0 mm 0,0 km/h (0 Bft) NO 45 -4,8 C 0,0 km/h (0 Bft)
27.11.2015 07:25 -3,7 C -3,9 C 91 % 1019,0 hPa 0,0 mm 0,0 km/h (0 Bft) O-NO 67 -4,9 C 0,0 km/h (0 Bft)
27.11.2015 07:30 -3,7 C -3,9 C 91 % 1019,0 hPa 0,0 mm 0,0 km/h (0 Bft) S 180 -4,9 C 0,0 km/h (0 Bft)
27.11.2015 07:35 -3,7 C -3,8 C 87 % 1019,2 hPa 0,0 mm 0,0 km/h (0 Bft) SO 135 -5,5 C 0,0 km/h (0 Bft)
27.11.2015 07:40 -3,5 C -3,7 C 91 % 1019,2 hPa 0,0 mm 1,8 km/h (1 Bft) SW 225 -4,8 C 2,8 km/h (1 Bft)
27.11.2015 07:45 -3,5 C -3,6 C 87 % 1019,2 hPa 0,0 mm 1,8 km/h (1 Bft) SW 225 -5,3 C 0,0 km/h (0 Bft)
27.11.2015 07:50 -3,5 C -3,5 C 87 % 1019,2 hPa 0,0 mm 0,3 km/h (0 Bft) S 180 -5,3 C 0,0 km/h (0 Bft)
27.11.2015 07:55 -3,4 C -3,4 C 87 % 1019,0 hPa 0,0 mm 0,0 km/h (0 Bft) SO 135 -5,2 C 0,0 km/h (0 Bft)
27.11.2015 08:00 -3,3 C -3,3 C 87 % 1019,0 hPa 0,0 mm 0,0 km/h (0 Bft) W 270 -5,1 C 0,0 km/h (0 Bft)
27.11.2015 08:05 -3,3 C -3,3 C 87 % 1019,0 hPa 0,0 mm 0,0 km/h (0 Bft) W-SW 247 -5,1 C 0,0 km/h (0 Bft)
27.11.2015 08:10 -3,2 C -3,1 C 87 % 1019,0 hPa 0,0 mm 0,0 km/h (0 Bft) SO 135 -5,0 C 0,0 km/h (0 Bft)
27.11.2015 08:15 -3,0 C -3,0 C 87 % 1019,0 hPa 0,0 mm 0,0 km/h (0 Bft) SO 135 -4,9 C 0,0 km/h (0 Bft)
27.11.2015 08:20 -3,0 C -2,9 C 88 % 1019,0 hPa 0,0 mm 0,0 km/h (0 Bft) O-NO 67 -4,7 C 0,0 km/h (0 Bft)
27.11.2015 08:25 -3,0 C -2,9 C 87 % 1019,0 hPa 0,0 mm 0,0 km/h (0 Bft) O-SO 112 -4,9 C 0,0 km/h (0 Bft)
27.11.2015 08:30 -3,0 C -2,8 C 88 % 1019,0 hPa 0,0 mm 0,0 km/h (0 Bft) S 180 -4,7 C 0,0 km/h (0 Bft)
27.11.2015 08:35 -2,9 C -2,7 C 88 % 1018,9 hPa 0,0 mm 0,0 km/h (0 Bft) SO 135 -4,6 C 0,0 km/h (0 Bft)
27.11.2015 08:40 -2,9 C -2,7 C 88 % 1018,9 hPa 0,0 mm 0,0 km/h (0 Bft) O-SO 112 -4,6 C 0,0 km/h (0 Bft)
27.11.2015 08:45 -2,9 C -2,5 C 88 % 1018,9 hPa 0,0 mm 0,3 km/h (0 Bft) O 90 -4,6 C 3,4 km/h (1 Bft)
27.11.2015 08:50 -2,9 C -2,6 C 88 % 1018,9 hPa 0,0 mm 0,5 km/h (0 Bft) NO 45 -4,6 C 5,4 km/h (1 Bft)
27.11.2015 08:55 -2,9 C -2,6 C 88 % 1018,8 hPa 0,0 mm 1,0 km/h (0 Bft) O-SO 112 -4,6 C 0,0 km/h (0 Bft)
27.11.2015 09:00 -3,0 C -2,7 C 87 % 1018,8 hPa 0,0 mm 1,3 km/h (1 Bft) O-NO 67 -4,9 C 0,0 km/h (0 Bft)
27.11.2015 09:05 -3,0 C -2,5 C 88 % 1018,8 hPa 0,0 mm 1,3 km/h (1 Bft) O-NO 67 -4,7 C 2,6 km/h (1 Bft)
27.11.2015 09:10 -2,9 C -2,3 C 88 % 1018,8 hPa 0,0 mm 0,3 km/h (0 Bft) SO 135 -4,6 C 0,0 km/h (0 Bft)
27.11.2015 09:15 -2,9 C -2,2 C 88 % 1018,9 hPa 0,0 mm 0,0 km/h (0 Bft) O-NO 67 -4,6 C 0,0 km/h (0 Bft)
27.11.2015 09:20 -2,8 C -2,0 C 88 % 1018,9 hPa 0,0 mm 0,0 km/h (0 Bft) NO 45 -4,5 C 0,0 km/h (0 Bft)
27.11.2015 09:25 -2,6 C -2,0 C 88 % 1018,9 hPa 0,0 mm 0,0 km/h (0 Bft) O-NO 67 -4,3 C 0,0 km/h (0 Bft)
27.11.2015 09:30 -2,6 C -2,1 C 88 % 1018,9 hPa 0,0 mm 1,3 km/h (1 Bft) O-NO 67 -4,3 C 5,2 km/h (1 Bft)
27.11.2015 09:35 -2,8 C -2,1 C 88 % 1018,7 hPa 0,0 mm 2,3 km/h (1 Bft) O-NO 67 -4,5 C 4,4 km/h (1 Bft)
27.11.2015 09:40 -2,6 C -2,0 C 88 % 1018,7 hPa 0,0 mm 1,6 km/h (1 Bft) O-SO 112 -4,3 C 0,0 km/h (0 Bft)
27.11.2015 09:45 -2,5 C -1,8 C 88 % 1018,7 hPa 0,0 mm 0,3 km/h (0 Bft) NO 45 -4,2 C 0,0 km/h (0 Bft)
27.11.2015 09:50 -2,5 C -1,6 C 88 % 1018,7 hPa 0,0 mm 0,8 km/h (0 Bft) O 90 -4,2 C 0,0 km/h (0 Bft)
27.11.2015 09:55 -2,5 C -1,6 C 88 % 1018,7 hPa 0,0 mm 1,3 km/h (1 Bft) O-NO 67 -4,2 C 3,6 km/h (1 Bft)
27.11.2015 10:00 -2,4 C -1,4 C 88 % 1018,7 hPa 0,0 mm 0,8 km/h (0 Bft) O-SO 112 -4,1 C 0,0 km/h (0 Bft)
27.11.2015 10:05 -2,2 C -1,0 C 88 % 1018,7 hPa 0,0 mm 0,8 km/h (0 Bft) NO 45 -3,9 C 4,9 km/h (1 Bft)
27.11.2015 10:10 -2,0 C -0,8 C 88 % 1018,7 hPa 0,0 mm 0,5 km/h (0 Bft) O-SO 112 -3,7 C 0,0 km/h (0 Bft)
27.11.2015 10:15 -1,9 C -0,3 C 88 % 1018,6 hPa 0,0 mm 0,5 km/h (0 Bft) NO 45 -3,6 C 0,0 km/h (0 Bft)
27.11.2015 10:20 -1,8 C -0,4 C 88 % 1018,6 hPa 0,0 mm 0,0 km/h (0 Bft) O-NO 67 -3,5 C 0,0 km/h (0 Bft)
27.11.2015 10:25 -1,8 C -0,4 C 88 % 1018,6 hPa 0,0 mm 0,0 km/h (0 Bft) O-NO 67 -3,5 C 0,0 km/h (0 Bft)
27.11.2015 10:30 -1,9 C -0,4 C 88 % 1018,6 hPa 0,0 mm 0,5 km/h (0 Bft) NO 45 -3,6 C 2,8 km/h (1 Bft)
27.11.2015 10:35 -1,8 C -0,3 C 88 % 1018,6 hPa 0,0 mm 0,5 km/h (0 Bft) O-NO 67 -3,5 C 0,0 km/h (0 Bft)
27.11.2015 10:40 -1,8 C -0,3 C 88 % 1018,6 hPa 0,0 mm 0,5 km/h (0 Bft) O-SO 112 -3,5 C 0,0 km/h (0 Bft)
27.11.2015 10:45 -1,6 C -0,2 C 88 % 1018,6 hPa 0,0 mm 0,8 km/h (0 Bft) O-SO 112 -3,3 C 0,0 km/h (0 Bft)
27.11.2015 10:50 -1,6 C 0,0 C 88 % 1018,6 hPa 0,0 mm 1,0 km/h (0 Bft) O-NO 67 -3,3 C 5,2 km/h (1 Bft)
27.11.2015 10:55 -1,6 C -0,1 C 88 % 1018,4 hPa 0,0 mm 1,6 km/h (1 Bft) NO 45 -3,3 C 2,8 km/h (1 Bft)
27.11.2015 11:00 -1,5 C 0,2 C 87 % 1018,4 hPa 0,0 mm 2,8 km/h (1 Bft) O 90 -3,4 C 3,9 km/h (1 Bft)
27.11.2015 11:05 -1,6 C 0,2 C 87 % 1018,4 hPa 0,0 mm 2,3 km/h (1 Bft) S-SO 157 -3,5 C 6,2 km/h (2 Bft)
27.11.2015 11:10 -1,4 C 0,5 C 87 % 1018,4 hPa 0,0 mm 1,8 km/h (1 Bft) O-NO 67 -3,3 C 4,1 km/h (1 Bft)
27.11.2015 11:15 -1,3 C 1,0 C 87 % 1018,3 hPa 0,0 mm 1,3 km/h (1 Bft) O 90 -3,2 C 0,0 km/h (0 Bft)
27.11.2015 11:20 -1,3 C 0,9 C 87 % 1018,3 hPa 0,0 mm 2,1 km/h (1 Bft) O-NO 67 -3,2 C 3,9 km/h (1 Bft)
27.11.2015 11:25 -1,4 C 0,7 C 87 % 1018,3 hPa 0,0 mm 3,1 km/h (1 Bft) O-NO 67 -3,3 C 4,7 km/h (1 Bft)
27.11.2015 11:27 -1,5 C 0,6 C 87 % 1018,3 hPa 0,0 mm 3,9 km/h (1 Bft) O-NO 67 -3,4 C 6,7 km/h (2 Bft)
27.11.2015 11:30 -1,5 C 0,6 C 87 % 1018,3 hPa 0,0 mm 3,9 km/h (1 Bft) O-NO 67 -3,4 C 6,7 km/h (2 Bft)
27.11.2015 11:35 -1,5 C 0,4 C 87 % 1018,1 hPa 0,0 mm 3,6 km/h (1 Bft) O-NO 67 -3,4 C 3,6 km/h (1 Bft)
27.11.2015 11:40 -1,4 C 0,5 C 87 % 1018,1 hPa 0,0 mm 3,6 km/h (1 Bft) NO 45 -3,3 C 4,7 km/h (1 Bft)
27.11.2015 11:45 -1,4 C 0,5 C 87 % 1018,1 hPa 0,0 mm 3,9 km/h (1 Bft) NO 45 -3,3 C 6,0 km/h (2 Bft)
27.11.2015 11:50 -1,5 C 0,5 C 87 % 1018,1 hPa 0,0 mm 3,9 km/h (1 Bft) O 90 -3,4 C 2,6 km/h (1 Bft)
27.11.2015 11:55 -1,4 C 0,7 C 87 % 1018,0 hPa 0,0 mm 3,4 km/h (1 Bft) O 90 -3,3 C 4,9 km/h (1 Bft)
27.11.2015 12:00 -1,3 C 0,9 C 87 % 1018,0 hPa 0,0 mm 2,8 km/h (1 Bft) N-NO 22 -3,2 C 5,4 km/h (1 Bft)
27.11.2015 12:05 -1,3 C 0,8 C 87 % 1018,0 hPa 0,0 mm 3,6 km/h (1 Bft) O 90 -3,2 C 4,4 km/h (1 Bft)
27.11.2015 12:10 -1,3 C 0,4 C 87 % 1018,0 hPa 0,0 mm 4,4 km/h (1 Bft) O-NO 67 -3,2 C 9,8 km/h (2 Bft)
27.11.2015 12:15 -1,4 C -0,2 C 86 % 1017,8 hPa 0,0 mm 5,2 km/h (1 Bft) O-NO 67 -3,4 C 7,3 km/h (2 Bft)
27.11.2015 12:20 -1,4 C -0,4 C 86 % 1017,8 hPa 0,0 mm 5,7 km/h (1 Bft) O-SO 112 -3,4 C 3,9 km/h (1 Bft)
27.11.2015 12:25 -1,5 C -0,5 C 86 % 1017,8 hPa 0,0 mm 5,7 km/h (1 Bft) O-NO 67 -3,5 C 3,4 km/h (1 Bft)
27.11.2015 12:30 -1,5 C -0,5 C 86 % 1017,8 hPa 0,0 mm 6,0 km/h (2 Bft) NO 45 -3,5 C 12,7 km/h (3 Bft)
27.11.2015 12:35 -1,6 C -0,4 C 86 % 1017,8 hPa 0,0 mm 5,2 km/h (1 Bft) O-NO 67 -3,6 C 5,2 km/h (1 Bft)
27.11.2015 12:40 -1,6 C -0,3 C 86 % 1017,8 hPa 0,0 mm 3,6 km/h (1 Bft) O-NO 67 -3,6 C 5,7 km/h (1 Bft)
27.11.2015 12:45 -1,8 C -0,4 C 86 % 1017,8 hPa 0,0 mm 2,3 km/h (1 Bft) O-NO 67 -3,8 C 0,0 km/h (0 Bft)
27.11.2015 12:50 -1,8 C -0,4 C 86 % 1017,8 hPa 0,0 mm 3,4 km/h (1 Bft) NO 45 -3,8 C 9,8 km/h (2 Bft)
27.11.2015 12:55 -1,8 C -0,8 C 86 % 1017,3 hPa 0,0 mm 4,1 km/h (1 Bft) N-NO 22 -3,8 C 0,0 km/h (0 Bft)
27.11.2015 13:00 -1,8 C -0,8 C 86 % 1017,3 hPa 0,0 mm 4,1 km/h (1 Bft) O-NO 67 -3,8 C 3,9 km/h (1 Bft)
27.11.2015 13:05 -1,8 C -0,7 C 86 % 1017,3 hPa 0,0 mm 3,9 km/h (1 Bft) N-NO 22 -3,8 C 4,1 km/h (1 Bft)
27.11.2015 13:10 -1,8 C -0,6 C 86 % 1017,3 hPa 0,0 mm 4,1 km/h (1 Bft) O-NO 67 -3,8 C 4,4 km/h (1 Bft)
27.11.2015 13:15 -1,6 C -0,5 C 86 % 1017,2 hPa 0,0 mm 3,1 km/h (1 Bft) O-SO 112 -3,6 C 3,4 km/h (1 Bft)
27.11.2015 13:20 -1,8 C -0,6 C 86 % 1017,2 hPa 0,0 mm 3,6 km/h (1 Bft) O-NO 67 -3,8 C 7,3 km/h (2 Bft)
27.11.2015 13:25 -1,9 C -1,2 C 86 % 1017,2 hPa 0,0 mm 4,9 km/h (1 Bft) O-NO 67 -3,9 C 7,5 km/h (2 Bft)
27.11.2015 13:30 -1,9 C -1,3 C 86 % 1017,2 hPa 0,0 mm 5,4 km/h (1 Bft) W 270 -3,9 C 6,0 km/h (2 Bft)
27.11.2015 13:35 -1,9 C -1,2 C 86 % 1017,0 hPa 0,0 mm 4,7 km/h (1 Bft) NO 45 -3,9 C 7,5 km/h (2 Bft)
27.11.2015 13:40 -1,9 C -0,9 C 86 % 1017,0 hPa 0,0 mm 2,8 km/h (1 Bft) O-NO 67 -3,9 C 0,0 km/h (0 Bft)
27.11.2015 13:45 -1,9 C -0,9 C 86 % 1017,0 hPa 0,0 mm 3,1 km/h (1 Bft) NO 45 -3,9 C 9,3 km/h (2 Bft)
27.11.2015 13:50 -2,0 C -1,0 C 86 % 1017,0 hPa 0,0 mm 3,4 km/h (1 Bft) NO 45 -4,0 C 6,2 km/h (2 Bft)
27.11.2015 13:55 -2,0 C -1,4 C 86 % 1016,9 hPa 0,0 mm 5,2 km/h (1 Bft) O-NO 67 -4,0 C 10,9 km/h (2 Bft)
27.11.2015 14:00 -2,2 C -1,7 C 86 % 1016,9 hPa 0,0 mm 5,7 km/h (1 Bft) O-SO 112 -4,2 C 3,1 km/h (1 Bft)
27.11.2015 14:05 -2,2 C -1,8 C 86 % 1016,9 hPa 0,0 mm 5,4 km/h (1 Bft) NO 45 -4,2 C 5,2 km/h (1 Bft)
27.11.2015 14:10 -2,3 C -1,7 C 86 % 1016,9 hPa 0,0 mm 4,9 km/h (1 Bft) O-NO 67 -4,3 C 8,3 km/h (2 Bft)
27.11.2015 14:15 -2,3 C -1,9 C 86 % 1016,8 hPa 0,0 mm 5,4 km/h (1 Bft) NO 45 -4,3 C 3,6 km/h (1 Bft)
27.11.2015 14:20 -2,4 C -2,0 C 86 % 1016,8 hPa 0,0 mm 5,2 km/h (1 Bft) N-NW 337 -4,4 C 6,2 km/h (2 Bft)
27.11.2015 14:25 -2,4 C -2,0 C 86 % 1016,8 hPa 0,0 mm 4,1 km/h (1 Bft) NO 45 -4,4 C 0,0 km/h (0 Bft)
27.11.2015 14:30 -2,4 C -1,9 C 86 % 1016,8 hPa 0,0 mm 3,1 km/h (1 Bft) O-SO 112 -4,4 C 4,1 km/h (1 Bft)
27.11.2015 14:35 -2,3 C -1,8 C 86 % 1016,5 hPa 0,0 mm 2,3 km/h (1 Bft) O-NO 67 -4,3 C 0,0 km/h (0 Bft)
27.11.2015 14:40 -2,3 C -1,8 C 86 % 1016,5 hPa 0,0 mm 2,3 km/h (1 Bft) NO 45 -4,3 C 4,7 km/h (1 Bft)
27.11.2015 14:45 -2,3 C -1,9 C 86 % 1016,5 hPa 0,0 mm 2,6 km/h (1 Bft) NO 45 -4,3 C 4,9 km/h (1 Bft)
27.11.2015 14:50 -2,3 C -1,9 C 86 % 1016,5 hPa 0,0 mm 4,1 km/h (1 Bft) O-NO 67 -4,3 C 6,5 km/h (2 Bft)
27.11.2015 14:55 -2,3 C -2,2 C 86 % 1016,3 hPa 0,0 mm 5,2 km/h (1 Bft) N-NO 22 -4,3 C 5,7 km/h (1 Bft)
27.11.2015 15:00 -2,3 C -2,1 C 86 % 1016,3 hPa 0,0 mm 4,7 km/h (1 Bft) O-NO 67 -4,3 C 7,0 km/h (2 Bft)
27.11.2015 15:05 -2,3 C -2,1 C 86 % 1016,3 hPa 0,0 mm 4,4 km/h (1 Bft) NW 315 -4,3 C 8,8 km/h (2 Bft)
27.11.2015 15:10 -2,2 C -1,9 C 86 % 1016,3 hPa 0,0 mm 4,1 km/h (1 Bft) NO 45 -4,2 C 5,7 km/h (1 Bft)
27.11.2015 15:15 -2,2 C -1,8 C 86 % 1016,2 hPa 0,0 mm 2,8 km/h (1 Bft) NO 45 -4,2 C 2,8 km/h (1 Bft)
27.11.2015 15:20 -2,2 C -1,7 C 86 % 1016,2 hPa 0,0 mm 2,3 km/h (1 Bft) O-NO 67 -4,2 C 7,3 km/h (2 Bft)
27.11.2015 15:25 -2,2 C -1,8 C 86 % 1016,2 hPa 0,0 mm 2,1 km/h (1 Bft) N-NW 337 -4,2 C 3,4 km/h (1 Bft)
27.11.2015 15:30 -2,2 C -1,9 C 86 % 1016,2 hPa 0,0 mm 2,8 km/h (1 Bft) O-NO 67 -4,2 C 0,0 km/h (0 Bft)
27.11.2015 15:35 -2,2 C -1,9 C 86 % 1016,3 hPa 0,0 mm 1,8 km/h (1 Bft) O 90 -4,2 C 0,0 km/h (0 Bft)
27.11.2015 15:40 -2,2 C -1,9 C 86 % 1016,3 hPa 0,0 mm 0,3 km/h (0 Bft) N-NO 22 -4,2 C 3,9 km/h (1 Bft)
27.11.2015 15:45 -2,2 C -1,9 C 86 % 1016,3 hPa 0,0 mm 0,5 km/h (0 Bft) O-NO 67 -4,2 C 0,0 km/h (0 Bft)
27.11.2015 15:50 -2,2 C -2,0 C 86 % 1016,3 hPa 0,0 mm 0,5 km/h (0 Bft) NO 45 -4,2 C 0,0 km/h (0 Bft)
27.11.2015 15:55 -2,2 C -2,0 C 86 % 1016,2 hPa 0,0 mm 0,5 km/h (0 Bft) O-NO 67 -4,2 C 0,0 km/h (0 Bft)
27.11.2015 16:00 -2,2 C -2,0 C 86 % 1016,2 hPa 0,0 mm 1,0 km/h (0 Bft) O-SO 112 -4,2 C 0,0 km/h (0 Bft)
27.11.2015 16:05 -2,2 C -2,1 C 86 % 1016,2 hPa 0,0 mm 1,0 km/h (0 Bft) S-SW 202 -4,2 C 0,0 km/h (0 Bft)
27.11.2015 16:10 -2,2 C -2,1 C 86 % 1016,2 hPa 0,0 mm 0,5 km/h (0 Bft) NO 45 -4,2 C 0,0 km/h (0 Bft)
27.11.2015 16:15 -2,2 C -2,2 C 86 % 1016,1 hPa 0,0 mm 0,5 km/h (0 Bft) O-SO 112 -4,2 C 3,9 km/h (1 Bft)
27.11.2015 16:20 -2,2 C -2,2 C 86 % 1016,1 hPa 0,0 mm 0,3 km/h (0 Bft) O-NO 67 -4,2 C 0,0 km/h (0 Bft)
27.11.2015 16:25 -2,2 C -2,2 C 86 % 1016,1 hPa 0,0 mm 0,5 km/h (0 Bft) O-NO 67 -4,2 C 4,1 km/h (1 Bft)
27.11.2015 16:30 -2,2 C -2,2 C 86 % 1016,1 hPa 0,0 mm 0,8 km/h (0 Bft) O-NO 67 -4,2 C 0,0 km/h (0 Bft)
27.11.2015 16:35 -2,2 C -2,2 C 86 % 1016,0 hPa 0,0 mm 0,8 km/h (0 Bft) NO 45 -4,2 C 0,0 km/h (0 Bft)
27.11.2015 16:40 -2,2 C -2,2 C 86 % 1016,0 hPa 0,0 mm 0,0 km/h (0 Bft) O-SO 112 -4,2 C 0,0 km/h (0 Bft)
27.11.2015 16:45 -2,2 C -2,2 C 86 % 1016,0 hPa 0,0 mm 0,0 km/h (0 Bft) NO 45 -4,2 C 0,0 km/h (0 Bft)
27.11.2015 16:50 -2,2 C -2,2 C 86 % 1016,0 hPa 0,0 mm 0,0 km/h (0 Bft) O-NO 67 -4,2 C 0,0 km/h (0 Bft)
27.11.2015 16:55 -2,2 C -2,2 C 86 % 1016,1 hPa 0,0 mm 0,0 km/h (0 Bft) NO 45 -4,2 C 0,0 km/h (0 Bft)
27.11.2015 17:00 -2,2 C -2,3 C 86 % 1016,1 hPa 0,0 mm 0,0 km/h (0 Bft) N-NO 22 -4,2 C 0,0 km/h (0 Bft)
27.11.2015 17:05 -2,2 C -2,2 C 86 % 1016,1 hPa 0,0 mm 0,0 km/h (0 Bft) O 90 -4,2 C 0,0 km/h (0 Bft)
27.11.2015 17:10 -2,2 C -2,3 C 86 % 1016,1 hPa 0,0 mm 0,0 km/h (0 Bft) O-NO 67 -4,2 C 0,0 km/h (0 Bft)
27.11.2015 17:15 -2,2 C -2,3 C 86 % 1016,1 hPa 0,0 mm 0,0 km/h (0 Bft) O 90 -4,2 C 0,0 km/h (0 Bft)
27.11.2015 17:20 -2,2 C -2,3 C 86 % 1016,1 hPa 0,0 mm 0,0 km/h (0 Bft) O-NO 67 -4,2 C 0,0 km/h (0 Bft)
27.11.2015 17:25 -2,2 C -2,3 C 86 % 1016,1 hPa 0,0 mm 0,0 km/h (0 Bft) O-SO 112 -4,2 C 0,0 km/h (0 Bft)
27.11.2015 17:27 -2,2 C -2,3 C 86 % 1016,1 hPa 0,0 mm 0,0 km/h (0 Bft) NO 45 -4,2 C 0,0 km/h (0 Bft)
27.11.2015 17:31 -2,2 C -2,3 C 86 % 1016,1 hPa 0,0 mm 0,0 km/h (0 Bft) NO 45 -4,2 C 0,0 km/h (0 Bft)
27.11.2015 17:35 -2,2 C -2,3 C 86 % 1016,1 hPa 0,0 mm 0,0 km/h (0 Bft) NO 45 -4,2 C 0,0 km/h (0 Bft)
27.11.2015 17:40 -2,2 C -2,3 C 86 % 1016,1 hPa 0,0 mm 0,0 km/h (0 Bft) NO 45 -4,2 C 0,0 km/h (0 Bft)
27.11.2015 17:45 -2,2 C -2,3 C 86 % 1016,1 hPa 0,0 mm 0,0 km/h (0 Bft) NO 45 -4,2 C 0,0 km/h (0 Bft)
27.11.2015 17:50 -2,2 C -2,3 C 86 % 1016,1 hPa 0,0 mm 0,0 km/h (0 Bft) NO 45 -4,2 C 0,0 km/h (0 Bft)
27.11.2015 17:55 -2,2 C -2,3 C 86 % 1016,0 hPa 0,0 mm 0,0 km/h (0 Bft) NO 45 -4,2 C 0,0 km/h (0 Bft)
27.11.2015 18:00 -2,2 C -2,3 C 86 % 1016,0 hPa 0,0 mm 0,0 km/h (0 Bft) O 90 -4,2 C 0,0 km/h (0 Bft)
27.11.2015 18:05 -2,2 C -2,3 C 86 % 1016,0 hPa 0,0 mm 0,0 km/h (0 Bft) O-NO 67 -4,2 C 0,0 km/h (0 Bft)
27.11.2015 18:10 -2,2 C -2,3 C 86 % 1016,0 hPa 0,0 mm 0,0 km/h (0 Bft) NO 45 -4,2 C 0,0 km/h (0 Bft)
27.11.2015 18:15 -2,2 C -2,3 C 86 % 1015,8 hPa 0,0 mm 0,0 km/h (0 Bft) NO 45 -4,2 C 0,0 km/h (0 Bft)
27.11.2015 18:20 -2,2 C -2,3 C 86 % 1015,8 hPa 0,0 mm 0,0 km/h (0 Bft) O-NO 67 -4,2 C 0,0 km/h (0 Bft)
27.11.2015 18:25 -2,2 C -2,3 C 86 % 1015,8 hPa 0,0 mm 0,0 km/h (0 Bft) O-SO 112 -4,2 C 0,0 km/h (0 Bft)
27.11.2015 18:30 -2,2 C -2,2 C 86 % 1015,8 hPa 0,0 mm 0,0 km/h (0 Bft) NO 45 -4,2 C 0,0 km/h (0 Bft)
27.11.2015 18:35 -2,2 C -2,2 C 86 % 1015,8 hPa 0,0 mm 0,0 km/h (0 Bft) N-NO 22 -4,2 C 0,0 km/h (0 Bft)
27.11.2015 18:40 -2,0 C -2,2 C 88 % 1015,8 hPa 0,0 mm 0,0 km/h (0 Bft) O-SO 112 -3,7 C 0,0 km/h (0 Bft)
27.11.2015 18:45 -2,2 C -2,2 C 86 % 1015,8 hPa 0,0 mm 0,0 km/h (0 Bft) O-SO 112 -4,2 C 0,0 km/h (0 Bft)
27.11.2015 18:50 -2,2 C -2,2 C 86 % 1015,8 hPa 0,0 mm 0,0 km/h (0 Bft) O-SO 112 -4,2 C 0,0 km/h (0 Bft)
27.11.2015 18:55 -2,2 C -2,2 C 86 % 1015,8 hPa 0,0 mm 0,0 km/h (0 Bft) N-NO 22 -4,2 C 0,0 km/h (0 Bft)
27.11.2015 19:00 -2,2 C -2,2 C 86 % 1015,8 hPa 0,0 mm 0,0 km/h (0 Bft) N 360 -4,2 C 0,0 km/h (0 Bft)
27.11.2015 19:05 -2,2 C -2,2 C 86 % 1015,8 hPa 0,0 mm 0,0 km/h (0 Bft) N 360 -4,2 C 0,0 km/h (0 Bft)
27.11.2015 19:10 -2,2 C -2,3 C 86 % 1015,8 hPa 0,0 mm 0,0 km/h (0 Bft) N 360 -4,2 C 0,0 km/h (0 Bft)
27.11.2015 19:15 -2,2 C -2,3 C 86 % 1015,8 hPa 0,0 mm 0,0 km/h (0 Bft) N 360 -4,2 C 0,0 km/h (0 Bft)
27.11.2015 19:20 -2,2 C -2,3 C 86 % 1015,8 hPa 0,0 mm 0,0 km/h (0 Bft) N 360 -4,2 C 0,0 km/h (0 Bft)
27.11.2015 19:25 -2,2 C -2,3 C 86 % 1015,8 hPa 0,0 mm 0,0 km/h (0 Bft) N 360 -4,2 C 0,0 km/h (0 Bft)
27.11.2015 19:30 -2,2 C -2,3 C 86 % 1015,8 hPa 0,0 mm 0,0 km/h (0 Bft) N-NW 337 -4,2 C 0,0 km/h (0 Bft)
27.11.2015 19:35 -2,2 C -2,3 C 86 % 1015,8 hPa 0,0 mm 0,0 km/h (0 Bft) N-NW 337 -4,2 C 0,0 km/h (0 Bft)
27.11.2015 19:40 -2,2 C -2,3 C 86 % 1015,8 hPa 0,0 mm 0,0 km/h (0 Bft) N-NW 337 -4,2 C 0,0 km/h (0 Bft)
27.11.2015 19:45 -2,2 C -2,3 C 86 % 1015,8 hPa 0,0 mm 0,0 km/h (0 Bft) N-NW 337 -4,2 C 0,0 km/h (0 Bft)
27.11.2015 19:50 -2,2 C -2,3 C 86 % 1015,8 hPa 0,0 mm 0,0 km/h (0 Bft) N-NW 337 -4,2 C 0,0 km/h (0 Bft)
27.11.2015 19:55 -2,2 C -2,3 C 86 % 1015,7 hPa 0,0 mm 0,0 km/h (0 Bft) N-NW 337 -4,2 C 0,0 km/h (0 Bft)
27.11.2015 20:00 -2,2 C -2,3 C 86 % 1015,7 hPa 0,0 mm 0,0 km/h (0 Bft) N-NW 337 -4,2 C 0,0 km/h (0 Bft)
27.11.2015 20:05 -2,2 C -2,3 C 86 % 1015,7 hPa 0,0 mm 0,0 km/h (0 Bft) N-NW 337 -4,2 C 0,0 km/h (0 Bft)
27.11.2015 20:10 -2,2 C -2,3 C 86 % 1015,7 hPa 0,0 mm 0,0 km/h (0 Bft) N-NW 337 -4,2 C 0,0 km/h (0 Bft)
27.11.2015 20:15 -2,2 C -2,3 C 86 % 1015,3 hPa 0,0 mm 0,0 km/h (0 Bft) N-NW 337 -4,2 C 0,0 km/h (0 Bft)
27.11.2015 20:20 -2,2 C -2,3 C 86 % 1015,3 hPa 0,0 mm 0,0 km/h (0 Bft) N-NW 337 -4,2 C 0,0 km/h (0 Bft)
27.11.2015 20:25 -2,2 C -2,4 C 88 % 1015,3 hPa 0,0 mm 0,0 km/h (0 Bft) N-NW 337 -3,9 C 0,0 km/h (0 Bft)
27.11.2015 20:30 -2,2 C -2,4 C 88 % 1015,3 hPa 0,0 mm 0,0 km/h (0 Bft) N-NW 337 -3,9 C 0,0 km/h (0 Bft)
27.11.2015 20:35 -2,2 C -2,4 C 88 % 1015,3 hPa 0,0 mm 0,0 km/h (0 Bft) N-NW 337 -3,9 C 0,0 km/h (0 Bft)
27.11.2015 20:40 -2,3 C -2,4 C 86 % 1015,3 hPa 0,0 mm 0,0 km/h (0 Bft) N-NW 337 -4,3 C 0,0 km/h (0 Bft)
27.11.2015 20:45 -2,3 C -2,5 C 88 % 1015,3 hPa 0,0 mm 0,0 km/h (0 Bft) N-NW 337 -4,0 C 0,0 km/h (0 Bft)
27.11.2015 20:50 -2,4 C -2,6 C 88 % 1015,3 hPa 0,0 mm 0,0 km/h (0 Bft) N-NW 337 -4,1 C 0,0 km/h (0 Bft)
27.11.2015 20:55 -2,5 C -2,7 C 88 % 1015,1 hPa 0,0 mm 0,0 km/h (0 Bft) N-NW 337 -4,2 C 0,0 km/h (0 Bft)
27.11.2015 21:00 -2,6 C -2,8 C 88 % 1015,1 hPa 0,0 mm 0,0 km/h (0 Bft) W 270 -4,3 C 0,0 km/h (0 Bft)
27.11.2015 21:05 -2,5 C -2,8 C 88 % 1015,1 hPa 0,0 mm 0,0 km/h (0 Bft) SW 225 -4,2 C 0,0 km/h (0 Bft)
27.11.2015 21:10 -2,4 C -2,7 C 88 % 1015,1 hPa 0,0 mm 0,0 km/h (0 Bft) SW 225 -4,1 C 0,0 km/h (0 Bft)
27.11.2015 21:15 -2,5 C -2,8 C 88 % 1014,8 hPa 0,0 mm 0,0 km/h (0 Bft) S 180 -4,2 C 0,0 km/h (0 Bft)
27.11.2015 21:20 -2,6 C -2,9 C 88 % 1014,8 hPa 0,0 mm 0,3 km/h (0 Bft) W-SW 247 -4,3 C 3,6 km/h (1 Bft)
27.11.2015 21:25 -2,7 C -3,0 C 88 % 1014,8 hPa 0,0 mm 1,3 km/h (1 Bft) W-SW 247 -4,4 C 3,1 km/h (1 Bft)
27.11.2015 21:30 -2,8 C -3,1 C 88 % 1014,8 hPa 0,0 mm 2,8 km/h (1 Bft) SW 225 -4,5 C 3,9 km/h (1 Bft)
27.11.2015 21:35 -2,8 C -3,1 C 88 % 1014,8 hPa 0,0 mm 2,6 km/h (1 Bft) SW 225 -4,5 C 3,1 km/h (1 Bft)
27.11.2015 21:40 -2,8 C -3,1 C 88 % 1014,8 hPa 0,0 mm 1,6 km/h (1 Bft) W-SW 247 -4,5 C 4,4 km/h (1 Bft)
27.11.2015 21:45 -2,8 C -3,1 C 88 % 1014,8 hPa 0,0 mm 0,5 km/h (0 Bft) W-SW 247 -4,5 C 0,0 km/h (0 Bft)
27.11.2015 21:50 -2,8 C -3,1 C 88 % 1014,8 hPa 0,0 mm 0,0 km/h (0 Bft) S-SW 202 -4,5 C 0,0 km/h (0 Bft)
27.11.2015 21:55 -2,9 C -3,2 C 88 % 1014,8 hPa 0,0 mm 0,0 km/h (0 Bft) SW 225 -4,6 C 0,0 km/h (0 Bft)
27.11.2015 22:00 -3,0 C -3,2 C 88 % 1014,8 hPa 0,0 mm 0,0 km/h (0 Bft) W-SW 247 -4,7 C 0,0 km/h (0 Bft)
27.11.2015 22:05 -3,1 C -3,3 C 88 % 1014,8 hPa 0,0 mm 0,8 km/h (0 Bft) W 270 -4,8 C 5,4 km/h (1 Bft)
27.11.2015 22:10 -3,3 C -3,6 C 87 % 1014,8 hPa 0,0 mm 1,3 km/h (1 Bft) SW 225 -5,1 C 0,0 km/h (0 Bft)
27.11.2015 22:15 -3,5 C -3,8 C 87 % 1014,7 hPa 0,0 mm 1,0 km/h (0 Bft) W-SW 247 -5,3 C 0,0 km/h (0 Bft)
27.11.2015 22:20 -3,7 C -4,0 C 87 % 1014,7 hPa 0,0 mm 0,8 km/h (0 Bft) SW 225 -5,5 C 5,2 km/h (1 Bft)
27.11.2015 22:25 -3,8 C -4,1 C 87 % 1014,7 hPa 0,0 mm 1,0 km/h (0 Bft) SW 225 -5,6 C 0,0 km/h (0 Bft)
27.11.2015 22:30 -3,9 C -4,2 C 87 % 1014,7 hPa 0,0 mm 0,8 km/h (0 Bft) W-SW 247 -5,7 C 0,0 km/h (0 Bft)
27.11.2015 22:35 -4,0 C -4,3 C 87 % 1014,5 hPa 0,0 mm 1,0 km/h (0 Bft) W-SW 247 -5,8 C 5,2 km/h (1 Bft)
27.11.2015 22:40 -3,9 C -4,2 C 87 % 1014,5 hPa 0,0 mm 2,1 km/h (1 Bft) S 180 -5,7 C 0,0 km/h (0 Bft)
27.11.2015 22:45 -3,7 C -4,0 C 87 % 1014,5 hPa 0,0 mm 1,3 km/h (1 Bft) S 180 -5,5 C 0,0 km/h (0 Bft)
27.11.2015 22:50 -3,5 C -3,8 C 87 % 1014,5 hPa 0,0 mm 0,8 km/h (0 Bft) SW 225 -5,3 C 0,0 km/h (0 Bft)
27.11.2015 22:55 -3,3 C -3,6 C 87 % 1014,8 hPa 0,0 mm 1,3 km/h (1 Bft) W-NW 292 -5,1 C 4,7 km/h (1 Bft)
27.11.2015 23:00 -3,2 C -3,4 C 88 % 1014,8 hPa 0,0 mm 1,6 km/h (1 Bft) NW 315 -4,9 C 0,0 km/h (0 Bft)
27.11.2015 23:05 -3,2 C -3,4 C 88 % 1014,8 hPa 0,0 mm 1,3 km/h (1 Bft) W-SW 247 -4,9 C 4,4 km/h (1 Bft)
27.11.2015 23:10 -3,2 C -3,3 C 86 % 1014,8 hPa 0,0 mm 1,0 km/h (0 Bft) W-NW 292 -5,2 C 2,6 km/h (1 Bft)
27.11.2015 23:15 -3,2 C -3,3 C 86 % 1014,7 hPa 0,0 mm 2,8 km/h (1 Bft) W 270 -5,2 C 4,4 km/h (1 Bft)
27.11.2015 23:20 -3,1 C -3,3 C 88 % 1014,7 hPa 0,0 mm 2,6 km/h (1 Bft) W 270 -4,8 C 0,0 km/h (0 Bft)
27.11.2015 23:25 -3,1 C -3,3 C 88 % 1014,7 hPa 0,0 mm 1,8 km/h (1 Bft) W-SW 247 -4,8 C 2,8 km/h (1 Bft)
27.11.2015 23:30 -3,1 C -3,3 C 88 % 1014,7 hPa 0,0 mm 2,3 km/h (1 Bft) SW 225 -4,8 C 5,4 km/h (1 Bft)
27.11.2015 23:32 -3,1 C -3,3 C 88 % 1014,7 hPa 0,0 mm 2,3 km/h (1 Bft) SW 225 -4,8 C 5,4 km/h (1 Bft)
27.11.2015 23:35 -3,0 C -3,2 C 88 % 1014,8 hPa 0,0 mm 1,6 km/h (1 Bft) W-NW 292 -4,7 C 4,4 km/h (1 Bft)
27.11.2015 23:40 -3,1 C -3,3 C 88 % 1014,8 hPa 0,0 mm 0,5 km/h (0 Bft) W-SW 247 -4,8 C 0,0 km/h (0 Bft)
27.11.2015 23:45 -3,0 C -3,2 C 88 % 1014,8 hPa 0,0 mm 1,3 km/h (1 Bft) S-SW 202 -4,7 C 8,3 km/h (2 Bft)
27.11.2015 23:50 -3,0 C -3,2 C 88 % 1014,8 hPa 0,0 mm 2,6 km/h (1 Bft) W-SW 247 -4,7 C 4,4 km/h (1 Bft)
27.11.2015 23:55 -3,0 C -3,3 C 88 % 1014,8 hPa 0,0 mm 3,6 km/h (1 Bft) W-SW 247 -4,7 C 4,9 km/h (1 Bft)
_ Min-Zeit 22:35 22:35 23:15 22:50 - 22:00 - - 22:35 23:40
Minimum _ -4,0 C -4,3 C 86 % 1014,5 hPa - 0,0 km/h (0 Bft) - - -5,8 C 0,0 km/h (0 Bft)
_ Max-Zeit 12:10 11:15 07:00 01:30 23:55 12:30 - - 03:35 12:30
Maximum _ -1,3 C 1,0 C 92 % 1020,2 hPa 0,0 mm 6,0 km/h
NO (2 Bft)
- - -2,9 C 12,7 km/h
NO (3 Bft)
Durchschnitt _ -2,4 C -2,2 C 88 % 1017,6 hPa #0,0 mm 1,1 km/h (0 Bft) O-NO - -4,1 C 1,6 km/h (1 Bft)